Time,TemperatureF,DewpointF,PressureIn,WindDirection,WindDirectionDegrees,WindSpeedMPH,WindSpeedGustMPH,Humidity,HourlyPrecipIn,Conditions,Clouds,dailyrainin,SoftwareType,DateUTC
2013-02-20 07:00:00,33.2,24.8,29.61,West,263,4.0,4.0,71,0.00,,,0.00,Wunderground v.1.15,2013-02-20 12:00:00,
2013-02-20 07:30:00,32.3,22.2,29.63,WSW,255,5.0,7.0,66,0.00,,,0.00,Wunderground v.1.15,2013-02-20 12:30:00,
2013-02-20 08:00:00,32.4,21.9,29.64,West,261,5.0,5.0,65,0.00,,,0.00,Wunderground v.1.15,2013-02-20 13:00:00,
2013-02-20 08:30:00,33.0,22.1,29.64,West,275,5.0,5.0,64,0.00,,,0.00,Wunderground v.1.15,2013-02-20 13:30:00,
2013-02-20 09:00:00,33.9,21.5,29.64,WSW,245,6.0,6.0,60,0.00,,,0.00,Wunderground v.1.15,2013-02-20 14:00:00,
2013-02-20 09:30:00,34.7,22.2,29.65,West,277,4.0,4.0,60,0.00,,,0.00,Wunderground v.1.15,2013-02-20 14:30:00,
2013-02-20 10:00:00,35.0,20.4,29.64,West,278,6.0,6.0,55,0.00,,,0.00,Wunderground v.1.15,2013-02-20 15:00:00,
2013-02-20 10:30:00,34.1,20.0,29.65,NW,308,7.0,7.0,56,0.00,,,0.00,Wunderground v.1.15,2013-02-20 15:30:00,
2013-02-20 11:00:00,34.5,19.1,29.65,West,261,7.0,7.0,53,0.00,,,0.00,Wunderground v.1.15,2013-02-20 16:00:00,
2013-02-20 11:30:00,34.3,18.5,29.65,West,268,6.0,10.0,52,0.00,,,0.00,Wunderground v.1.15,2013-02-20 16:30:00,
2013-02-20 12:00:00,33.8,18.0,29.64,SW,222,7.0,7.0,52,0.00,,,0.00,Wunderground v.1.15,2013-02-20 17:00:00,
2013-02-20 12:30:00,35.2,17.9,29.64,West,264,6.0,6.0,49,0.00,,,0.00,Wunderground v.1.15,2013-02-20 17:30:00,
2013-02-20 13:00:00,33.8,17.1,29.63,WSW,250,6.0,8.0,50,0.00,,,0.00,Wunderground v.1.15,2013-02-20 18:00:00,
2013-02-20 13:30:00,33.8,16.6,29.62,SW,231,6.0,8.0,49,0.00,,,0.00,Wunderground v.1.15,2013-02-20 18:30:00,
2013-02-20 14:00:00,33.4,15.8,29.63,SW,231,5.0,12.0,48,0.00,,,0.00,Wunderground v.1.15,2013-02-20 19:00:00,
2013-02-20 14:30:00,33.4,15.3,29.63,ESE,106,6.0,6.0,47,0.00,,,0.00,Wunderground v.1.15,2013-02-20 19:30:00,
2013-02-20 15:00:00,33.3,15.2,29.64,SSW,205,6.0,6.0,47,0.00,,,0.00,Wunderground v.1.15,2013-02-20 20:00:00,
2013-02-20 15:30:00,33.8,14.7,29.65,West,263,6.0,6.0,45,0.00,,,0.00,Wunderground v.1.15,2013-02-20 20:30:00,
2013-02-20 16:00:00,33.1,13.5,29.65,WNW,285,7.0,7.0,44,0.00,,,0.00,Wunderground v.1.15,2013-02-20 21:00:00,
2013-02-20 16:30:00,31.9,13.4,29.66,WNW,286,6.0,6.0,46,0.00,,,0.00,Wunderground v.1.15,2013-02-20 21:30:00,
2013-02-20 17:00:00,31.2,12.8,29.66,West,266,5.0,11.0,46,0.00,,,0.00,Wunderground v.1.15,2013-02-20 22:00:00,
2013-02-20 17:30:00,30.2,12.8,29.67,West,268,6.0,6.0,48,0.00,,,0.00,Wunderground v.1.15,2013-02-20 22:30:00,
2013-02-20 18:00:00,29.4,13.0,29.69,SW,229,6.0,8.0,50,0.00,,,0.00,Wunderground v.1.15,2013-02-20 23:00:00,
2013-02-20 18:30:00,29.0,13.1,29.70,NE,47,5.0,5.0,51,0.00,,,0.00,Wunderground v.1.15,2013-02-20 23:30:00,
2013-02-20 19:00:00,28.6,13.2,29.70,West,267,5.0,5.0,52,0.00,,,0.00,Wunderground v.1.15,2013-02-21 00:00:00,
2013-02-20 19:30:00,28.2,13.2,29.71,East,86,5.0,5.0,53,0.00,,,0.00,Wunderground v.1.15,2013-02-21 00:30:00,
2013-02-20 20:00:00,28.2,13.2,29.72,West,263,4.0,4.0,53,0.00,,,0.00,Wunderground v.1.15,2013-02-21 01:00:00,
2013-02-20 20:30:00,28.4,13.9,29.73,West,269,4.0,4.0,54,0.00,,,0.00,Wunderground v.1.15,2013-02-21 01:30:00,
2013-02-20 21:00:00,28.0,14.3,29.73,West,267,5.0,7.0,56,0.00,,,0.00,Wunderground v.1.15,2013-02-21 02:00:00,